Regional Weather Roundup
Issued by NWS State College, PA

Home | Current Version | Previous Version | Graphics & Text | Print | Product List | Glossary Off
Versions: 1 2 3 4 5 6 7 8 9 10 11 12 13 14 15 16 17 18 19 20 21 22 23 24 25 26 27 28 29 30 31 32 33 34 35 36 37 38 39 40 41 42 43 44 45 46 47 48 49 50

000
ASUS41 KCTP 010103
RWRCTP

REGIONAL WEATHER ROUNDUP
NATIONAL WEATHER SERVICE STATE COLLEGE PA
800 PM EST SAT JAN 31 2015

Note: "fair" indicates few or no clouds below 12,000 feet with no
significant weather and/or obstructions to visibility.

* = STATION THAT DOES NOT REPORT PRECIPITATION /E.G. RAIN...SNOW...ETC/
    THUNDER OR FOG.

PAZ002>004-007>009-013>016-020>023-029>032-010200-
WESTERN PENNSYLVANIA

CITY           SKY/WX    TMP DP  RH WIND       PRES   REMARKS
ERIE           CLOUDY    26  15  63 S12       30.21S
MEADVILLE      MOCLDY    21  14  74 S9        30.18F WCI  11
FRANKLIN*      FAIR      18  10  73 SW6       30.20F WCI   9
NEW CASTLE     MOCLDY    23  14  68 CALM      30.24F
BEAVER COUNTY  MOCLDY    25  16  68 S3        30.22F
BUTLER*        FAIR      21  12  68 S6        30.24F WCI  14
PITTSBURGH INT MOCLDY    24  15  68 SW7       30.24S
PITTSBURGH     FAIR      24  11  57 SW7       30.23F
INDIANA*       CLEAR     18  12  79 W5        30.26S WCI  11
LATROBE        PTCLDY    23  14  68 CALM      30.26F
WASHINGTON CO* FAIR      18  12  79 CALM      30.26F
$$

PAZ004>006-010>012-017>019-024>028-033>037-041-042-045-046-049>053-010200-
CENTRAL PENNSYLVANIA

CITY           SKY/WX    TMP DP  RH WIND       PRES   REMARKS
BRADFORD       CLOUDY    18  10  71 SW6       30.12F WCI  10
DUBOIS         FAIR      16  10  77 SW3       30.16F
CLEARFIELD     FAIR      17   9  70 SW5       30.19S WCI  10
JOHNSTOWN      FAIR      19   9  65 W12       30.14S WCI   7
ALTOONA        FAIR      19   9  65 S6        30.20S WCI  11
STATE COLLEGE  CLEAR     19   9  63 SW9       30.21S WCI   9
WILLIAMSPORT   FAIR      22   6  50 W7        30.22R WCI  13
SELINSGROVE    FAIR      20   7  57 CALM      30.25R
FT INDIANTOWN  FAIR      24   7  48 W10       30.23S WCI  13
CAPITAL CITY   FAIR      19   7  59 W5        30.25S WCI  12
HARRISBURG     FAIR      17   6  62 CALM      30.25S
YORK           FAIR       9   4  80 CALM      30.24F
$$

PAZ038>040-043-044-047-048-054-055-060>062-067>071-010200-
EASTERN PENNSYLVANIA

CITY           SKY/WX    TMP DP  RH WIND       PRES   REMARKS
SCRANTON       FAIR      16   3  56 N5        30.17R WCI   9
MOUNT POCONO   FAIR      13   3  64 NW12      30.07R WCI  -1
ALLENTOWN      FAIR      22   5  48 W5        30.21R
QUAKERTOWN*    FAIR      21   7  53 SW3       30.21R
READING        FAIR      22   7  52 W8        30.22S WCI  12
LANCASTER      FAIR      21   6  52 W6        30.24S WCI  13
COATESVILLE    FAIR      23  10  58 W3        30.22S
POTTSTOWN      FAIR      21   7  54 W5        30.23S WCI  15
BLUE BELL      FAIR      25   9  50 W3        30.22R
DOYLESTOWN     FAIR      20   6  55 VRB3      30.21R
WILLOW GROVE   NOT AVBL
NORTH PHILA    FAIR      26   6  42 W9        30.25R
PHILADELPHIA   FAIR      25   7  46 W9        30.26R
$$


USA.gov is the U.S. government's official web portal to all federal, state and local government web resources and services.